SAS089 ESSA-ESSV

Flight info

Callsign SAS089
Flight time 0h 28m
Altitude 15000
Route BABAP T316 GOTAL
Aircraft A320/M-SDE3FGHIRWY/LB1

Departure

Time 2026-04-25 15:36
Airport Stockholm-Arlanda Airport (ESSA)

Arrival

Time 2026-04-25 16:04
Airport Visby Airport (ESSV)
Time Latitude Longitude Altitude Speed Heading
2026-04-25 15:23 59.65366 17.92952 112 ft 0 kts 139°
2026-04-25 15:30 59.65371 17.92944 112 ft 1 kts 139°
2026-04-25 15:30 59.65381 17.92927 112 ft 2 kts 139°
2026-04-25 15:30 59.65391 17.92910 111 ft 2 kts 126°
2026-04-25 15:30 59.65397 17.92886 109 ft 2 kts 79°
2026-04-25 15:31 59.65394 17.92861 109 ft 2 kts 71°
2026-04-25 15:31 59.65393 17.92858 109 ft 0 kts 71°
2026-04-25 15:33 59.65401 17.92905 109 ft 6 kts 71°
2026-04-25 15:33 59.65438 17.92958 112 ft 8 kts 359°
2026-04-25 15:34 59.65513 17.92916 111 ft 17 kts 345°
2026-04-25 15:34 59.65587 17.93065 109 ft 19 kts 74°
2026-04-25 15:34 59.65611 17.93242 109 ft 21 kts 72°
2026-04-25 15:34 59.65671 17.93389 109 ft 22 kts 45°
2026-04-25 15:35 59.65837 17.93651 117 ft 8 kts
2026-04-25 15:35 59.65856 17.93713 116 ft 4 kts 78°
2026-04-25 15:35 59.65858 17.93732 117 ft 8 kts 78°
2026-04-25 15:36 59.66153 17.95983 123 ft 157 kts 75°
2026-04-25 15:36 59.66427 17.98168 739 ft 164 kts 69°
2026-04-25 15:36 59.66695 18.00374 1703 ft 165 kts 71°
2026-04-25 15:37 59.66961 18.02627 2249 ft 175 kts 70°
2026-04-25 15:37 59.67255 18.05086 2577 ft 192 kts 71°
2026-04-25 15:37 59.67555 18.07799 2928 ft 214 kts 72°
2026-04-25 15:37 59.67656 18.10907 3311 ft 245 kts 97°
2026-04-25 15:38 59.66803 18.14011 3880 ft 273 kts 132°
2026-04-25 15:38 59.65131 18.15965 4676 ft 285 kts 156°
2026-04-25 15:38 59.63239 18.17248 5539 ft 290 kts 162°
2026-04-25 15:38 59.61273 18.18269 6385 ft 294 kts 166°
2026-04-25 15:39 59.59263 18.19194 7185 ft 299 kts 167°
2026-04-25 15:39 59.57224 18.20114 7979 ft 302 kts 167°
2026-04-25 15:39 59.55178 18.21093 8850 ft 304 kts 166°
2026-04-25 15:39 59.53127 18.22220 9633 ft 309 kts 164°
2026-04-25 15:40 59.51041 18.23477 10095 ft 323 kts 163°
2026-04-25 15:40 59.49586 18.24376 10221 ft 338 kts 163°
2026-04-25 15:40 59.46451 18.26299 10499 ft 364 kts 164°
2026-04-25 15:40 59.44012 18.27755 11129 ft 369 kts 165°
2026-04-25 15:41 59.41541 18.29197 11837 ft 371 kts 165°
2026-04-25 15:41 59.39055 18.30625 12532 ft 374 kts 166°
2026-04-25 15:41 59.36545 18.32051 13223 ft 377 kts 166°
2026-04-25 15:41 59.34015 18.33486 13872 ft 379 kts 166°
2026-04-25 15:42 59.31471 18.34932 14460 ft 383 kts 166°
2026-04-25 15:42 59.28901 18.36392 15021 ft 386 kts 166°
2026-04-25 15:42 59.26305 18.37865 15597 ft 390 kts 167°
2026-04-25 15:42 59.23691 18.39347 16163 ft 393 kts 167°
2026-04-25 15:43 59.21088 18.40822 16740 ft 396 kts 167°
2026-04-25 15:43 59.18435 18.42324 17324 ft 399 kts 167°
2026-04-25 15:43 59.15746 18.43845 17921 ft 403 kts 167°
2026-04-25 15:43 59.13045 18.45369 18427 ft 405 kts 167°
2026-04-25 15:44 59.10320 18.46901 18969 ft 408 kts 168°
2026-04-25 15:44 59.07583 18.48434 19523 ft 411 kts 168°
2026-04-25 15:44 59.04831 18.49975 20080 ft 413 kts 168°
2026-04-25 15:44 59.02051 18.51523 20539 ft 416 kts 168°
2026-04-25 15:45 58.99263 18.53073 20655 ft 422 kts 168°
2026-04-25 15:45 58.96395 18.54662 20665 ft 433 kts 168°
2026-04-25 15:45 58.93450 18.55861 20664 ft 432 kts 177°
2026-04-25 15:45 58.91466 18.56181 20664 ft 430 kts 183°
2026-04-25 15:46 58.87498 18.55793 20660 ft 426 kts 191°
2026-04-25 15:46 58.84586 18.54916 20659 ft 423 kts 195°
2026-04-25 15:46 58.81693 18.53896 20650 ft 422 kts 196°
2026-04-25 15:46 58.78820 18.52823 20659 ft 421 kts 197°
2026-04-25 15:47 58.75979 18.51739 20660 ft 421 kts 197°
2026-04-25 15:47 58.73110 18.50645 20659 ft 421 kts 197°
2026-04-25 15:47 58.70240 18.49566 20660 ft 420 kts 196°
2026-04-25 15:47 58.67365 18.48501 20658 ft 420 kts 196°
2026-04-25 15:48 58.64491 18.47445 20657 ft 420 kts 196°
2026-04-25 15:48 58.61609 18.46393 20655 ft 420 kts 196°
2026-04-25 15:48 58.58735 18.45351 20655 ft 420 kts 196°
2026-04-25 15:48 58.55859 18.44317 20655 ft 420 kts 196°
2026-04-25 15:49 58.52983 18.43282 20638 ft 420 kts 197°
2026-04-25 15:49 58.50148 18.42259 20655 ft 419 kts 197°
2026-04-25 15:49 58.47248 18.41211 20664 ft 419 kts 197°
2026-04-25 15:49 58.44387 18.40175 20669 ft 418 kts 197°
2026-04-25 15:50 58.41526 18.39139 20668 ft 418 kts 197°
2026-04-25 15:50 58.38685 18.38121 20508 ft 410 kts 197°
2026-04-25 15:50 58.35931 18.37149 20205 ft 399 kts 197°
2026-04-25 15:50 58.33251 18.36195 19732 ft 394 kts 197°
2026-04-25 15:51 58.30559 18.35224 19245 ft 391 kts 197°
2026-04-25 15:51 58.28757 18.34574 18913 ft 390 kts 197°
2026-04-25 15:51 58.25249 18.33311 18257 ft 385 kts 198°
2026-04-25 15:51 58.22620 18.32360 17715 ft 383 kts 198°
2026-04-25 15:52 58.20016 18.31422 17187 ft 379 kts 198°
2026-04-25 15:52 58.17438 18.30505 16673 ft 375 kts 197°
2026-04-25 15:52 58.14887 18.29605 16156 ft 371 kts 197°
2026-04-25 15:52 58.12362 18.28716 15631 ft 368 kts 197°
2026-04-25 15:53 58.09855 18.27834 15115 ft 365 kts 197°
2026-04-25 15:53 58.07371 18.26953 14585 ft 362 kts 197°
2026-04-25 15:53 58.04898 18.26070 14052 ft 361 kts 197°
2026-04-25 15:53 58.02439 18.25197 13541 ft 360 kts 197°
2026-04-25 15:54 57.99982 18.24332 12957 ft 358 kts 196°
2026-04-25 15:54 57.97541 18.23479 12458 ft 355 kts 195°
2026-04-25 15:54 57.95119 18.22630 11936 ft 353 kts 195°
2026-04-25 15:54 57.92713 18.21787 11413 ft 351 kts 195°
2026-04-25 15:55 57.90345 18.20957 10907 ft 349 kts 195°
2026-04-25 15:55 57.87964 18.20121 10389 ft 348 kts 195°
2026-04-25 15:55 57.85612 18.19294 10177 ft 337 kts 195°
2026-04-25 15:55 57.83348 18.18507 10047 ft 325 kts 195°
2026-04-25 15:56 57.81160 18.17751 9918 ft 314 kts 195°
2026-04-25 15:56 57.79042 18.17018 9763 ft 305 kts 195°
2026-04-25 15:56 57.76976 18.16298 9615 ft 298 kts 195°
2026-04-25 15:56 57.74929 18.15581 9396 ft 302 kts 195°
2026-04-25 15:57 57.72859 18.14853 8955 ft 303 kts 194°
2026-04-25 15:57 57.70793 18.14135 8564 ft 302 kts 192°
2026-04-25 15:57 57.68722 18.13422 8215 ft 300 kts 192°
2026-04-25 15:57 57.66673 18.12719 7867 ft 299 kts 192°
2026-04-25 15:58 57.64626 18.12015 7474 ft 298 kts 192°
2026-04-25 15:58 57.62598 18.11318 6986 ft 294 kts 192°
2026-04-25 15:58 57.60609 18.10637 6364 ft 293 kts 192°
2026-04-25 15:58 57.58607 18.09948 5756 ft 291 kts 192°
2026-04-25 15:59 57.56626 18.09263 5240 ft 287 kts 192°
2026-04-25 15:59 57.54658 18.08749 4935 ft 286 kts 179°
2026-04-25 15:59 57.52694 18.09397 4669 ft 289 kts 156°
2026-04-25 15:59 57.51019 18.11388 4234 ft 285 kts 130°
2026-04-25 16:00 57.49922 18.14313 4033 ft 267 kts 108°
2026-04-25 16:00 57.49689 18.15379 3974 ft 260 kts 105°
2026-04-25 16:00 57.49428 18.20564 3675 ft 231 kts 63°
2026-04-25 16:00 57.50295 18.22914 3383 ft 219 kts 35°
2026-04-25 16:01 57.51620 18.24191 3056 ft 214 kts 19°
2026-04-25 16:01 57.53011 18.25164 2736 ft 211 kts 19°
2026-04-25 16:01 57.54350 18.26109 2442 ft 203 kts 19°
2026-04-25 16:01 57.55662 18.27041 2178 ft 200 kts 20°
2026-04-25 16:02 57.56952 18.27978 1908 ft 198 kts 20°
2026-04-25 16:02 57.58218 18.28925 1633 ft 192 kts 20°
2026-04-25 16:02 57.59420 18.29820 1367 ft 179 kts 20°
2026-04-25 16:02 57.60548 18.30615 1208 ft 165 kts 20°
2026-04-25 16:03 57.61572 18.31330 968 ft 151 kts 18°
2026-04-25 16:03 57.62520 18.31971 753 ft 137 kts 18°
2026-04-25 16:03 57.63394 18.32563 658 ft 134 kts 19°
2026-04-25 16:03 57.64252 18.33167 435 ft 130 kts 20°
2026-04-25 16:04 57.65080 18.33759 251 ft 128 kts 21°
2026-04-25 16:04 57.65891 18.34338 151 ft 115 kts 22°
2026-04-25 16:04 57.66433 18.34737 146 ft 48 kts 20°
2026-04-25 16:04 57.66597 18.34869 143 ft 9 kts 27°
2026-04-25 16:05 57.66601 18.34830 143 ft 6 kts 200°
2026-04-25 16:05 57.66511 18.34775 146 ft 25 kts 200°
2026-04-25 16:05 57.66065 18.34456 148 ft 32 kts 201°
2026-04-25 16:06 57.65967 18.34339 148 ft 13 kts 255°
2026-04-25 16:06 57.65998 18.34160 146 ft 17 kts 290°
2026-04-25 16:06 57.65981 18.34011 145 ft 9 kts 218°
2026-04-25 16:06 57.65977 18.33949 145 ft 5 kts 300°
2026-04-25 16:07 57.66011 18.33924 146 ft 2 kts 336°
2026-04-25 16:07 57.66014 18.33922 146 ft 0 kts 336°
2026-04-25 16:07 57.66015 18.33921 146 ft 0 kts 336°